,,,PA_Meas_PMT16A,,PR_Meas_QMR101_102,,RH_Meas_QMH101,,SR_Meas_QMS101,,TA_Meas_QMH101,,GenWind,,GenWind,
date,time,status,PA,status,PR,status,RH,status,SR,status,TA,status,DirAvg,status,SpdAvg,
2014-09-09, 00:00:05,VALID,1012.43,VALID,0,VALID,104,VALID,0,VALID,24.454,VALID,160,VALID,0,
2014-09-09, 00:01:05,VALID,1012.4,VALID,0,INVALID,109.445,VALID,0,VALID,24.454,VALID,160,VALID,0,
2014-09-09, 00:02:05,VALID,1012.33,VALID,0,INVALID,110.802,VALID,0,VALID,24.4345,VALID,160,VALID,0,
2014-09-09, 00:03:05,VALID,1012.33,VALID,0,INVALID,111.473,VALID,0,VALID,24.4345,VALID,160,VALID,0,
2014-09-09, 00:04:05,VALID,1012.28,VALID,0,INVALID,111.71,VALID,0,VALID,24.415,VALID,160,VALID,0,
2014-09-09, 00:05:05,VALID,1012.26,VALID,0,INVALID,111.717,VALID,0,VALID,24.3956,VALID,160,VALID,0,
2014-09-09, 00:06:05,VALID,1012.25,VALID,0,INVALID,111.984,VALID,0,VALID,24.3956,VALID,160,VALID,0,
2014-09-09, 00:07:05,VALID,1012.24,VALID,0,INVALID,112.282,VALID,0,VALID,24.3761,VALID,160,VALID,0,
2014-09-09, 00:08:05,VALID,1012.26,VALID,0,INVALID,112.442,VALID,0,VALID,24.3566,VALID,160,VALID,0,
2014-09-09, 00:09:05,VALID,1012.23,VALID,0,INVALID,113.075,VALID,0,VALID,24.3371,VALID,160,VALID,0,
2014-09-09, 00:10:05,VALID,1012.25,VALID,0,INVALID,114.165,VALID,0,VALID,24.3761,VALID,160,VALID,0,
2014-09-09, 00:11:05,VALID,1012.24,VALID,0,INVALID,115.355,VALID,0,VALID,24.3956,VALID,160,VALID,0,
2014-09-09, 00:12:05,VALID,1012.25,VALID,0,INVALID,116.255,VALID,0,VALID,24.3956,VALID,160,VALID,0,
2014-09-09, 00:13:05,VALID,1012.21,VALID,0,INVALID,116.689,VALID,0,VALID,24.3761,VALID,160,VALID,0,
2014-09-09, 00:14:05,VALID,1012.2,VALID,0,INVALID,117.52,VALID,0,VALID,24.3761,VALID,160,VALID,0,
2014-09-09, 00:15:05,VALID,1012.13,VALID,0,INVALID,118.001,VALID,0,VALID,24.3742,VALID,160,VALID,0,
2014-09-09, 00:16:05,VALID,1012.09,VALID,0,INVALID,118.375,VALID,0,VALID,24.3956,VALID,160,VALID,0,
2014-09-09, 00:17:05,VALID,1012.04,VALID,0,INVALID,119.259,VALID,0,VALID,24.3937,VALID,160,VALID,0,
2014-09-09, 00:18:05,VALID,1012.03,VALID,0,INVALID,119.64,VALID,0.112112,VALID,24.3937,VALID,160,VALID,0,
2014-09-09, 00:19:05,VALID,1012,VALID,0,INVALID,119.892,VALID,0,VALID,24.4345,VALID,160,VALID,0,
2014-09-09, 00:20:05,VALID,1011.99,VALID,0,INVALID,120.273,VALID,0,VALID,24.415,VALID,160,VALID,0,
2014-09-09, 00:21:05,VALID,1011.95,VALID,0,INVALID,120.639,VALID,0,VALID,24.454,VALID,160,VALID,0,
2014-09-09, 00:22:05,VALID,1011.96,VALID,0,INVALID,120.746,VALID,0,VALID,24.4522,VALID,160,VALID,0.199219,
2014-09-09, 00:23:05,VALID,1011.92,VALID,0,INVALID,120.708,VALID,0,VALID,24.454,VALID,160,VALID,0.25,
2014-09-09, 00:24:05,VALID,1011.92,VALID,0,INVALID,120.228,VALID,0,VALID,24.4345,VALID,160,VALID,0.293359,
2014-09-09, 00:25:04,VALID,1011.86,VALID,0,INVALID,119.907,VALID,0,VALID,24.415,VALID,160,VALID,0.277344,
2014-09-09, 00:26:04,VALID,1011.85,VALID,0,INVALID,119.663,VALID,0.112112,VALID,24.415,VALID,160,VALID,0.09375,
2014-09-09, 00:27:04,VALID,1011.85,VALID,0,INVALID,119.496,VALID,0,VALID,24.3742,VALID,160,VALID,0.0277344,
2014-09-09, 00:28:04,VALID,1011.84,VALID,0,INVALID,119.64,VALID,0,VALID,24.3742,VALID,160,VALID,0,
2014-09-09, 00:29:04,VALID,1011.84,VALID,0,INVALID,120.022,VALID,0,VALID,24.3761,VALID,160,VALID,0,
2014-09-09, 00:30:04,VALID,1011.82,VALID,0,INVALID,120.281,VALID,0,VALID,24.3761,VALID,160,VALID,0,
2014-09-09, 00:31:04,VALID,1011.82,VALID,0,INVALID,120.312,VALID,0,VALID,24.3566,VALID,160,VALID,0,
2014-09-09, 00:32:04,VALID,1011.8,VALID,0,INVALID,120.334,VALID,0,VALID,24.3566,VALID,160,VALID,0.220703,
2014-09-09, 00:33:04,VALID,1011.84,VALID,0,INVALID,120.594,VALID,0,VALID,24.3566,VALID,160,VALID,0.0851562,
2014-09-09, 00:34:04,VALID,1011.84,VALID,0,INVALID,120.739,VALID,0,VALID,24.3371,VALID,160,VALID,0,
2014-09-09, 00:35:04,VALID,1011.81,VALID,0,INVALID,120.853,VALID,0,VALID,24.3176,VALID,160,VALID,0,
2014-09-09, 00:36:04,VALID,1011.81,VALID,0,INVALID,121.211,VALID,0,VALID,24.3176,VALID,160,VALID,0,
2014-09-09, 00:37:04,VALID,1011.81,VALID,0,INVALID,121.692,VALID,0,VALID,24.3176,VALID,160,VALID,0,
2014-09-09, 00:38:04,VALID,1011.77,VALID,0,INVALID,122.409,VALID,0,VALID,24.3566,VALID,160,VALID,0,
2014-09-09, 00:39:04,VALID,1011.71,VALID,0,INVALID,122.752,VALID,0,VALID,24.3566,VALID,160,VALID,0,
2014-09-09, 00:40:04,VALID,1011.72,VALID,0,INVALID,123.133,VALID,0,VALID,24.3566,VALID,160,VALID,0,
2014-09-09, 00:41:04,VALID,1011.7,VALID,0,INVALID,123.171,VALID,0,VALID,24.3371,VALID,160,VALID,0,
2014-09-09, 00:42:04,VALID,1011.71,VALID,0,INVALID,123.552,VALID,0,VALID,24.3371,VALID,160,VALID,0,
2014-09-09, 00:43:04,VALID,1011.66,VALID,0,INVALID,123.453,VALID,0,VALID,24.3389,VALID,160,VALID,0,
2014-09-09, 00:44:04,VALID,1011.66,VALID,0,INVALID,123.438,VALID,0,VALID,24.2786,VALID,160,VALID,0,
2014-09-09, 00:45:04,VALID,1011.65,VALID,0,INVALID,123.552,VALID,0,VALID,24.2786,VALID,160,VALID,0,
2014-09-09, 00:46:04,VALID,1011.66,VALID,0,INVALID,123.758,VALID,0,VALID,24.2786,VALID,160,VALID,0,
2014-09-09, 00:47:04,VALID,1011.66,VALID,0,INVALID,123.918,VALID,0,VALID,24.2786,VALID,160,VALID,0,
2014-09-09, 00:48:04,VALID,1011.65,VALID,0,INVALID,124.025,VALID,0,VALID,24.2786,VALID,160,VALID,0,
2014-09-09, 00:49:04,VALID,1011.64,VALID,0,INVALID,124.124,VALID,0,VALID,24.2591,VALID,160,VALID,0,
2014-09-09, 00:50:04,VALID,1011.64,VALID,0,INVALID,124.307,VALID,0,VALID,24.2591,VALID,160,VALID,0,
2014-09-09, 00:51:04,VALID,1011.64,VALID,0,INVALID,124.407,VALID,0,VALID,24.2591,VALID,160,VALID,0,
2014-09-09, 00:52:04,VALID,1011.61,VALID,0,INVALID,124.59,VALID,0,VALID,24.2396,VALID,160,VALID,0,
2014-09-09, 00:53:04,VALID,1011.61,VALID,0,INVALID,125.581,VALID,0,VALID,24.2396,VALID,160,VALID,0,
2014-09-09, 00:54:04,VALID,1011.59,VALID,0,INVALID,126.237,VALID,0,VALID,24.2591,VALID,160,VALID,0,
2014-09-09, 00:55:04,VALID,1011.57,VALID,0,INVALID,126.999,VALID,0,VALID,24.2591,VALID,160,VALID,0,
2014-09-09, 00:56:04,VALID,1011.56,VALID,0,INVALID,127.182,VALID,0,VALID,24.2786,VALID,160,VALID,0,
2014-09-09, 00:57:04,VALID,1011.57,VALID,0,INVALID,127.137,VALID,0,VALID,24.2591,VALID,160,VALID,0.125391,
2014-09-09, 00:58:04,VALID,1011.56,VALID,0,INVALID,127.076,VALID,0,VALID,24.2396,VALID,160,VALID,0,
2014-09-09, 00:59:04,VALID,1011.55,VALID,0,INVALID,127.213,VALID,0,VALID,24.2202,VALID,160,VALID,0,
2014-09-09, 01:00:04,VALID,1011.57,VALID,0,INVALID,127.426,VALID,0,VALID,24.2202,VALID,160,VALID,0,
2014-09-09, 01:01:04,VALID,1011.54,VALID,0,INVALID,127.617,VALID,0,VALID,24.261,VALID,160,VALID,0,
2014-09-09, 01:02:04,VALID,1011.57,VALID,0,INVALID,128.143,VALID,0,VALID,24.2378,VALID,160,VALID,0,
2014-09-09, 01:03:04,VALID,1011.55,VALID,0,INVALID,128.578,VALID,0,VALID,24.2786,VALID,160,VALID,0,
2014-09-09, 01:04:04,VALID,1011.54,VALID,0,INVALID,128.822,VALID,0,VALID,24.2981,VALID,160,VALID,0,
2014-09-09, 01:05:04,VALID,1011.52,VALID,0,INVALID,129.005,VALID,0,VALID,24.3371,VALID,160,VALID,0,
2014-09-09, 01:06:04,VALID,1011.53,VALID,0,INVALID,129.089,VALID,0,VALID,24.3779,VALID,160,VALID,0,
2014-09-09, 01:07:04,VALID,1011.5,VALID,0,INVALID,129.287,VALID,0,VALID,24.3371,VALID,160,VALID,0,
2014-09-09, 01:08:04,VALID,1011.52,VALID,0,INVALID,129.44,VALID,0.112112,VALID,24.3761,VALID,160,VALID,0,
2014-09-09, 01:09:04,VALID,1011.51,VALID,0,INVALID,129.501,VALID,0,VALID,24.3761,VALID,160,VALID,0,
2014-09-09, 01:10:04,VALID,1011.47,VALID,0,INVALID,129.615,VALID,0,VALID,24.3761,VALID,160,VALID,0,
2014-09-09, 01:11:04,VALID,1011.44,VALID,0,INVALID,129.729,VALID,0,VALID,24.3566,VALID,160,VALID,0,
2014-09-09, 01:12:04,VALID,1011.41,VALID,0,INVALID,129.783,VALID,0.112112,VALID,24.3956,VALID,160,VALID,0.161328,
2014-09-09, 01:13:04,VALID,1011.41,VALID,0,INVALID,129.775,VALID,0,VALID,24.4735,VALID,160,VALID,0.349219,
2014-09-09, 01:14:04,VALID,1011.4,VALID,0,INVALID,129.813,VALID,0,VALID,24.5125,VALID,160,VALID,0.354688,
2014-09-09, 01:15:04,VALID,1011.39,VALID,0,INVALID,129.897,VALID,0,VALID,24.571,VALID,160,VALID,0.157031,
2014-09-09, 01:16:04,VALID,1011.43,VALID,0,INVALID,130.019,VALID,0,VALID,24.6099,VALID,160,VALID,0.1625,
2014-09-09, 01:17:04,VALID,1011.46,VALID,0,INVALID,130.263,VALID,0,VALID,24.6489,VALID,160,VALID,0.232812,
2014-09-09, 01:18:04,VALID,1011.47,VALID,0,INVALID,130.53,VALID,0,VALID,24.6879,VALID,160,VALID,0.601953,
2014-09-09, 01:19:04,VALID,1011.46,VALID,0,INVALID,130.827,VALID,0,VALID,24.7483,VALID,160,VALID,0.493359,
2014-09-09, 01:20:04,VALID,1011.48,VALID,0,INVALID,131.132,VALID,0,VALID,24.7659,VALID,160,VALID,0.783984,
2014-09-09, 01:21:04,VALID,1011.46,VALID,0,INVALID,131.315,VALID,0,VALID,24.8244,VALID,160,VALID,0.596094,
2014-09-09, 01:22:04,VALID,1011.42,VALID,0,INVALID,131.437,VALID,0,VALID,24.8633,VALID,160,VALID,0.589063,
2014-09-09, 01:23:04,VALID,1011.4,VALID,0,INVALID,131.537,VALID,0,VALID,24.9237,VALID,160,VALID,0.577344,
2014-09-09, 01:24:04,VALID,1011.37,VALID,0,INVALID,131.293,VALID,0,VALID,24.9218,VALID,160,VALID,0.532812,
2014-09-09, 01:25:04,VALID,1011.33,VALID,0,INVALID,130.652,VALID,0,VALID,24.9413,VALID,160,VALID,0.265234,
2014-09-09, 01:26:04,VALID,1011.29,VALID,0,INVALID,130.538,VALID,0,VALID,24.9608,VALID,160,VALID,0.0503906,
2014-09-09, 01:27:04,VALID,1011.25,VALID,0,INVALID,130.583,VALID,0,VALID,24.9608,VALID,160,VALID,0,
2014-09-09, 01:28:04,VALID,1011.18,VALID,0,INVALID,130.835,VALID,0,VALID,24.9608,VALID,160,VALID,0.0238281,
2014-09-09, 01:29:04,VALID,1011.14,VALID,0,INVALID,131.544,VALID,0,VALID,25.0017,VALID,160,VALID,0.385156,
2014-09-09, 01:30:04,VALID,1011.1,VALID,0,INVALID,131.521,VALID,0,VALID,24.9998,VALID,160,VALID,0,
2014-09-09, 01:31:04,VALID,1011.08,VALID,0,INVALID,131.628,VALID,0,VALID,24.9803,VALID,160,VALID,0.352344,
2014-09-09, 01:32:04,VALID,1011.06,VALID,0,INVALID,132.048,VALID,0,VALID,24.9998,VALID,160,VALID,0.411328,
2014-09-09, 01:33:04,VALID,1011.07,VALID,0,INVALID,132.032,VALID,0,VALID,25.0193,VALID,160,VALID,0,
2014-09-09, 01:34:04,VALID,1011.07,VALID,0,INVALID,132.162,VALID,0,VALID,25.0193,VALID,148,VALID,0.975,
2014-09-09, 01:35:04,VALID,1011.09,VALID,0,INVALID,132.284,VALID,0,VALID,25.0778,VALID,165,VALID,0.45,
2014-09-09, 01:36:04,VALID,1011.1,VALID,0,INVALID,131.834,VALID,0,VALID,25.0973,VALID,167,VALID,0.724609,
2014-09-09, 01:37:04,VALID,1011.1,VALID,0,INVALID,131.209,VALID,0,VALID,25.1557,VALID,204,VALID,0.794141,
2014-09-09, 01:38:04,VALID,1011.13,VALID,0,INVALID,130.164,VALID,0,VALID,25.1947,VALID,204,VALID,0.624609,
2014-09-09, 01:39:04,VALID,1011.1,VALID,0,INVALID,127.838,VALID,0,VALID,25.2337,VALID,193,VALID,1.30703,
2014-09-09, 01:40:04,VALID,1011.08,VALID,0,INVALID,124.224,VALID,0,VALID,25.3117,VALID,195,VALID,1.44258,
2014-09-09, 01:41:04,VALID,1011.08,VALID,0,INVALID,117.864,VALID,0,VALID,25.3488,VALID,155,VALID,0.848828,
2014-09-09, 01:42:04,VALID,1011.06,VALID,0,VALID,104,VALID,0,VALID,25.4677,VALID,175,VALID,1.51016,
2014-09-09, 01:43:04,VALID,1011.05,VALID,0,VALID,99.478,VALID,0,VALID,25.5066,VALID,188,VALID,1.39727,
2014-09-09, 01:44:04,VALID,1011.05,VALID,0,VALID,96.7098,VALID,0,VALID,25.5456,VALID,182,VALID,0.94375,
2014-09-09, 01:45:04,VALID,1011.07,VALID,0,VALID,94.3763,VALID,0,VALID,25.5866,VALID,168,VALID,1.84922,
2014-09-09, 01:46:04,VALID,1011.07,VALID,0,VALID,92.8054,VALID,0,VALID,25.5846,VALID,171,VALID,1.28906,
2014-09-09, 01:47:04,VALID,1011.07,VALID,0,VALID,90.9524,VALID,0,VALID,25.6236,VALID,162,VALID,1.49219,
2014-09-09, 01:48:04,VALID,1011.07,VALID,0,VALID,90.083,VALID,0,VALID,25.6431,VALID,171,VALID,1.3918,
2014-09-09, 01:49:04,VALID,1011.1,VALID,0,VALID,89.8924,VALID,0,VALID,25.6022,VALID,179,VALID,0.656641,
2014-09-09, 01:50:04,VALID,1011.07,VALID,0,VALID,89.9763,VALID,0,VALID,25.6041,VALID,178,VALID,0.959766,
2014-09-09, 01:51:04,VALID,1011.06,VALID,0,VALID,89.8085,VALID,0,VALID,25.5827,VALID,164,VALID,1.12227,
2014-09-09, 01:52:04,VALID,1011.04,VALID,0,VALID,89.7704,VALID,0,VALID,25.6041,VALID,164,VALID,0.944922,
2014-09-09, 01:53:04,VALID,1011.04,VALID,0,VALID,89.6179,VALID,0,VALID,25.6236,VALID,152,VALID,1.03594,
2014-09-09, 01:54:04,VALID,1011.04,VALID,0,VALID,89.4043,VALID,0,VALID,25.6041,VALID,152,VALID,0.462891,
2014-09-09, 01:55:04,VALID,1011.06,VALID,0,VALID,89.3357,VALID,0,VALID,25.5846,VALID,152,VALID,0.420703,
2014-09-09, 01:56:04,VALID,1011.07,VALID,0,VALID,89.5263,VALID,0,VALID,25.5846,VALID,152,VALID,0.876172,
2014-09-09, 01:57:04,VALID,1011.06,VALID,0,VALID,89.6179,VALID,0,VALID,25.5846,VALID,183,VALID,1.17734,
2014-09-09, 01:58:04,VALID,1011.06,VALID,0,VALID,89.3967,VALID,0,VALID,25.5846,VALID,183,VALID,1.39805,
2014-09-09, 01:59:04,VALID,1011.06,VALID,0,VALID,89.0459,VALID,0,VALID,25.5846,VALID,172,VALID,1.5332,
2014-09-09, 02:00:04,VALID,1011.04,VALID,0,VALID,88.9849,VALID,0,VALID,25.5846,VALID,175,VALID,1.36367,
2014-09-09, 02:01:04,VALID,1011.07,VALID,0,VALID,89.1832,VALID,0,VALID,25.5846,VALID,193,VALID,0.99375,
2014-09-09, 02:02:04,VALID,1011.09,VALID,0,VALID,89.2747,VALID,0,VALID,25.5456,VALID,193,VALID,1.06914,
2014-09-09, 02:03:04,VALID,1011.11,VALID,0,VALID,89.4043,VALID,0,VALID,25.5047,VALID,193,VALID,0.837109,
2014-09-09, 02:04:04,VALID,1011.15,VALID,0,VALID,89.4577,VALID,0,VALID,25.5261,VALID,193,VALID,0.944531,
2014-09-09, 02:05:04,VALID,1011.19,VALID,0,VALID,89.6484,VALID,0,VALID,25.5261,VALID,193,VALID,1.19687,
2014-09-09, 02:06:04,VALID,1011.22,VALID,0,VALID,89.5873,VALID,0,VALID,25.5066,VALID,197,VALID,1.36602,
2014-09-09, 02:07:04,VALID,1011.23,VALID,0,VALID,89.3357,VALID,0,VALID,25.5066,VALID,175,VALID,0.9875,
2014-09-09, 02:08:04,VALID,1011.24,VALID,0,VALID,89.0307,VALID,0,VALID,25.5066,VALID,151,VALID,1.44844,
2014-09-09, 02:09:04,VALID,1011.24,VALID,0,VALID,88.9849,VALID,0,VALID,25.5066,VALID,189,VALID,0.975,
2014-09-09, 02:10:04,VALID,1011.25,VALID,0,VALID,88.8782,VALID,0,VALID,25.4871,VALID,175,VALID,1.30195,
2014-09-09, 02:11:04,VALID,1011.26,VALID,0,VALID,88.7943,VALID,0,VALID,25.4871,VALID,188,VALID,1.49961,
2014-09-09, 02:12:04,VALID,1011.26,VALID,0,VALID,88.413,VALID,0,VALID,25.5066,VALID,172,VALID,1.30469,
2014-09-09, 02:13:04,VALID,1011.29,VALID,0,VALID,88.0698,VALID,0,VALID,25.5261,VALID,182,VALID,1.93789,
2014-09-09, 02:14:04,VALID,1011.31,VALID,0,VALID,87.7114,VALID,0,VALID,25.5456,VALID,168,VALID,1.80625,
2014-09-09, 02:15:04,VALID,1011.37,VALID,0,VALID,87.5436,VALID,0,VALID,25.5456,VALID,167,VALID,0.453125,
2014-09-09, 02:16:04,VALID,1011.41,VALID,0,VALID,87.5208,VALID,0,VALID,25.5261,VALID,165,VALID,1.14766,
2014-09-09, 02:17:04,VALID,1011.44,VALID,0,VALID,87.6885,VALID,0,VALID,25.4871,VALID,165,VALID,0.376563,
2014-09-09, 02:18:04,VALID,1011.48,VALID,0,VALID,87.9249,VALID,0,VALID,25.4482,VALID,165,VALID,0.95625,
2014-09-09, 02:19:04,VALID,1011.48,VALID,0,VALID,88.0317,VALID,0,VALID,25.4482,VALID,172,VALID,1.68594,
2014-09-09, 02:20:04,VALID,1011.51,VALID,0,VALID,88.2071,VALID,0,VALID,25.4482,VALID,147,VALID,1.08125,
2014-09-09, 02:21:04,VALID,1011.48,VALID,0,VALID,88.1918,VALID,0,VALID,25.4501,VALID,147,VALID,0.50625,
2014-09-09, 02:22:04,VALID,1011.46,VALID,0,VALID,88.3672,VALID,0,VALID,25.4287,VALID,147,VALID,1.06172,
2014-09-09, 02:23:04,VALID,1011.43,VALID,0,VALID,88.3825,VALID,0,VALID,25.4287,VALID,147,VALID,0.502734,
2014-09-09, 02:24:04,VALID,1011.42,VALID,0,VALID,88.6875,VALID,0,VALID,25.4092,VALID,147,VALID,0.883984,
2014-09-09, 02:25:04,VALID,1011.39,VALID,0,VALID,88.8172,VALID,0,VALID,25.4092,VALID,147,VALID,0.464063,
2014-09-09, 02:26:04,VALID,1011.4,VALID,0,VALID,88.7561,VALID,0,VALID,25.3897,VALID,147,VALID,0.651563,
2014-09-09, 02:27:04,VALID,1011.42,VALID,0,VALID,88.7714,VALID,0,VALID,25.3702,VALID,147,VALID,0.219922,
2014-09-09, 02:28:04,VALID,1011.44,VALID,0,VALID,88.8553,VALID,0.112112,VALID,25.3312,VALID,147,VALID,0.539063,
2014-09-09, 02:29:04,VALID,1011.45,VALID,0,VALID,88.657,VALID,0,VALID,25.2922,VALID,147,VALID,1.15469,
2014-09-09, 02:30:04,VALID,1011.48,VALID,0,VALID,88.535,VALID,0,VALID,25.3117,VALID,147,VALID,0.839844,
2014-09-09, 02:31:04,VALID,1011.45,VALID,0,VALID,88.4969,VALID,0,VALID,25.2922,VALID,170,VALID,1.45625,
2014-09-09, 02:32:04,VALID,1011.47,VALID,0,VALID,88.3596,VALID,0,VALID,25.2922,VALID,169,VALID,0.489453,
2014-09-09, 02:33:04,VALID,1011.43,VALID,0,VALID,88.3444,VALID,0,VALID,25.2727,VALID,162,VALID,1.0582,
2014-09-09, 02:34:04,VALID,1011.41,VALID,0,VALID,88.1537,VALID,0,VALID,25.2922,VALID,138,VALID,1.34922,
2014-09-09, 02:35:04,VALID,1011.44,VALID,0,VALID,88.1156,VALID,0,VALID,25.2922,VALID,138,VALID,1.01211,
2014-09-09, 02:36:04,VALID,1011.37,VALID,0,VALID,88.0698,VALID,0,VALID,25.2727,VALID,138,VALID,1.31445,
2014-09-09, 02:37:04,VALID,1011.36,VALID,0,VALID,88.0622,VALID,0,VALID,25.2727,VALID,138,VALID,0.655859,
2014-09-09, 02:38:04,VALID,1011.36,VALID,0,VALID,88.169,VALID,0,VALID,25.2337,VALID,138,VALID,1.00547,
2014-09-09, 02:39:04,VALID,1011.35,VALID,0,VALID,88.2605,VALID,0,VALID,25.2532,VALID,138,VALID,0.408984,
2014-09-09, 02:40:04,VALID,1011.4,VALID,0,VALID,88.2986,VALID,0,VALID,25.2532,VALID,138,VALID,0.980469,
2014-09-09, 02:41:04,VALID,1011.43,VALID,0,VALID,88.3062,VALID,0,VALID,25.2532,VALID,138,VALID,0.674609,
2014-09-09, 02:42:04,VALID,1011.48,VALID,0,VALID,88.2833,VALID,0,VALID,25.2532,VALID,138,VALID,0.542578,
2014-09-09, 02:43:04,VALID,1011.51,VALID,0,VALID,88.3977,VALID,0,VALID,25.2337,VALID,138,VALID,0.868359,
2014-09-09, 02:44:04,VALID,1011.52,VALID,0,VALID,88.474,VALID,0,VALID,25.2337,VALID,138,VALID,0.0863281,
2014-09-09, 02:45:04,VALID,1011.51,VALID,0,VALID,88.5274,VALID,0,VALID,25.2337,VALID,138,VALID,0.915625,
2014-09-09, 02:46:04,VALID,1011.51,VALID,0,VALID,88.6646,VALID,0,VALID,25.2337,VALID,138,VALID,0.482812,
2014-09-09, 02:47:04,VALID,1011.48,VALID,0,VALID,88.3596,VALID,0,VALID,25.2337,VALID,138,VALID,1.27969,
2014-09-09, 02:48:04,VALID,1011.45,VALID,0,VALID,88.1156,VALID,0,VALID,25.2532,VALID,138,VALID,0.607422,
2014-09-09, 02:49:04,VALID,1011.45,VALID,0,VALID,87.9707,VALID,0,VALID,25.2727,VALID,138,VALID,0.492969,
2014-09-09, 02:50:04,VALID,1011.44,VALID,0,VALID,87.9859,VALID,0,VALID,25.2532,VALID,138,VALID,0.796484,
2014-09-09, 02:51:04,VALID,1011.42,VALID,0,VALID,88.0164,VALID,0,VALID,25.2532,VALID,138,VALID,0.505078,
2014-09-09, 02:52:04,VALID,1011.42,VALID,0,VALID,88.0164,VALID,0,VALID,25.2337,VALID,138,VALID,0.953906,
2014-09-09, 02:53:04,VALID,1011.44,VALID,0,VALID,87.9859,VALID,0,VALID,25.2337,VALID,138,VALID,0.440234,
2014-09-09, 02:54:04,VALID,1011.42,VALID,0,VALID,88.0546,VALID,0,VALID,25.2337,VALID,138,VALID,0.670703,
2014-09-09, 02:55:04,VALID,1011.47,VALID,0,VALID,88.2223,VALID,0,VALID,25.2142,VALID,138,VALID,0.0601562,
2014-09-09, 02:56:04,VALID,1011.44,VALID,0,VALID,88.2223,VALID,0,VALID,25.2142,VALID,138,VALID,0.575781,
2014-09-09, 02:57:04,VALID,1011.47,VALID,0,VALID,88.0088,VALID,0,VALID,25.2337,VALID,138,VALID,0.38125,
2014-09-09, 02:58:04,VALID,1011.46,VALID,0,VALID,87.9859,VALID,0,VALID,25.2337,VALID,138,VALID,0.346094,
2014-09-09, 02:59:04,VALID,1011.44,VALID,0,VALID,88.169,VALID,0,VALID,25.1947,VALID,138,VALID,0.190625,
2014-09-09, 03:00:04,VALID,1011.45,VALID,0,VALID,88.1995,VALID,0,VALID,25.1947,VALID,138,VALID,0.334375,
2014-09-09, 03:01:04,VALID,1011.42,VALID,0,VALID,88.1385,VALID,0,VALID,25.1752,VALID,138,VALID,0.280859,
2014-09-09, 03:02:04,VALID,1011.42,VALID,0,VALID,88.0317,VALID,0,VALID,25.1947,VALID,138,VALID,0.477734,
2014-09-09, 03:03:04,VALID,1011.44,VALID,0,VALID,87.9707,VALID,0,VALID,25.1947,VALID,138,VALID,0.424609,
2014-09-09, 03:04:04,VALID,1011.46,VALID,0,VALID,87.9097,VALID,0,VALID,25.1733,VALID,138,VALID,0.435547,
2014-09-09, 03:05:04,VALID,1011.46,VALID,0,VALID,87.9631,VALID,0,VALID,25.1947,VALID,138,VALID,0.414844,
2014-09-09, 03:06:04,VALID,1011.46,VALID,0,VALID,87.9859,VALID,0,VALID,25.1947,VALID,138,VALID,0.437109,
2014-09-09, 03:07:04,VALID,1011.45,VALID,0,VALID,87.8487,VALID,0,VALID,25.1947,VALID,138,VALID,0.482031,
2014-09-09, 03:08:04,VALID,1011.46,VALID,0,VALID,87.8106,VALID,0,VALID,25.1947,VALID,138,VALID,0.512109,
2014-09-09, 03:09:04,VALID,1011.49,VALID,0,VALID,87.7953,VALID,0,VALID,25.1947,VALID,138,VALID,0.394141,
2014-09-09, 03:10:04,VALID,1011.47,VALID,0,VALID,87.8639,VALID,0,VALID,25.1752,VALID,138,VALID,0.592578,
2014-09-09, 03:11:04,VALID,1011.45,VALID,0,VALID,87.9478,VALID,0,VALID,25.1557,VALID,138,VALID,0.497656,
2014-09-09, 03:12:04,VALID,1011.46,VALID,0,VALID,88.0546,VALID,0.112112,VALID,25.1343,VALID,138,VALID,0.834766,
2014-09-09, 03:13:04,VALID,1011.47,VALID,0,VALID,88.169,VALID,0.112112,VALID,25.1343,VALID,138,VALID,0.878125,
2014-09-09, 03:14:04,VALID,1011.48,VALID,0,VALID,88.23,VALID,0.112112,VALID,25.1343,VALID,138,VALID,0.911719,
2014-09-09, 03:15:04,VALID,1011.52,VALID,0,VALID,88.3291,VALID,0.112112,VALID,25.1148,VALID,138,VALID,0.801562,
2014-09-09, 03:16:04,VALID,1011.5,VALID,0,VALID,88.4435,VALID,0.112112,VALID,25.1148,VALID,138,VALID,0.338672,
2014-09-09, 03:17:04,VALID,1011.5,VALID,0,VALID,88.596,VALID,0.112112,VALID,25.0954,VALID,138,VALID,0.555469,
2014-09-09, 03:18:04,VALID,1011.48,VALID,0,VALID,88.7409,VALID,0.112112,VALID,25.0759,VALID,138,VALID,0.511328,
2014-09-09, 03:19:04,VALID,1011.46,VALID,0,VALID,88.9468,VALID,0.112112,VALID,25.0564,VALID,138,VALID,0.653125,
2014-09-09, 03:20:04,VALID,1011.48,VALID,0,VALID,89.2137,VALID,0.112112,VALID,25.0564,VALID,138,VALID,0.544922,
2014-09-09, 03:21:04,VALID,1011.46,VALID,0,VALID,89.4653,VALID,0.112112,VALID,25.0369,VALID,138,VALID,0.800391,
2014-09-09, 03:22:04,VALID,1011.49,VALID,0,VALID,89.8085,VALID,0.112112,VALID,24.9979,VALID,138,VALID,0.419922,
2014-09-09, 03:23:04,VALID,1011.49,VALID,0,VALID,90.144,VALID,0,VALID,24.9784,VALID,138,VALID,0.609375,
2014-09-09, 03:24:04,VALID,1011.52,VALID,0,VALID,90.3804,VALID,0.112112,VALID,24.9589,VALID,138,VALID,0.423047,
2014-09-09, 03:25:04,VALID,1011.54,VALID,0,VALID,90.7465,VALID,0.112112,VALID,24.9394,VALID,138,VALID,0.591406,
2014-09-09, 03:26:04,VALID,1011.55,VALID,0,VALID,91.0973,VALID,0.112112,VALID,24.9608,VALID,138,VALID,0.506641,
2014-09-09, 03:27:04,VALID,1011.56,VALID,0,VALID,91.3565,VALID,0,VALID,24.9218,VALID,138,VALID,0.651953,
2014-09-09, 03:28:04,VALID,1011.61,VALID,0,VALID,91.5167,VALID,0,VALID,24.9023,VALID,138,VALID,0.596875,
2014-09-09, 03:29:04,VALID,1011.62,VALID,0,VALID,91.6234,VALID,0,VALID,24.9023,VALID,138,VALID,1.07344,
2014-09-09, 03:30:04,VALID,1011.65,VALID,0,VALID,91.5472,VALID,0,VALID,24.9023,VALID,110,VALID,0.997656,
2014-09-09, 03:31:04,VALID,1011.65,VALID,0,VALID,91.5014,VALID,0,VALID,24.9023,VALID,110,VALID,0.851172,
2014-09-09, 03:32:04,VALID,1011.66,VALID,0,VALID,91.4404,VALID,0,VALID,24.9023,VALID,110,VALID,0.639844,
2014-09-09, 03:33:04,VALID,1011.7,VALID,0,VALID,91.4252,VALID,0,VALID,24.9023,VALID,110,VALID,0.319922,
2014-09-09, 03:34:04,VALID,1011.7,VALID,0,VALID,91.4252,VALID,0,VALID,24.8828,VALID,110,VALID,0.286328,
2014-09-09, 03:35:04,VALID,1011.71,VALID,0,VALID,91.4938,VALID,0,VALID,24.8828,VALID,91,VALID,0.861719,
2014-09-09, 03:36:04,VALID,1011.72,VALID,0,VALID,91.3108,VALID,0,VALID,24.8633,VALID,91,VALID,0.681641,
2014-09-09, 03:37:04,VALID,1011.71,VALID,0,VALID,91.3947,VALID,0,VALID,24.8828,VALID,91,VALID,0.723047,
2014-09-09, 03:38:04,VALID,1011.72,VALID,0,VALID,91.2116,VALID,0,VALID,24.8633,VALID,123,VALID,1.05703,
2014-09-09, 03:39:04,VALID,1011.71,VALID,0,VALID,91.204,VALID,0,VALID,24.8633,VALID,123,VALID,0.573828,
2014-09-09, 03:40:04,VALID,1011.68,VALID,0,VALID,91.2421,VALID,0,VALID,24.8652,VALID,98,VALID,0.470313,
2014-09-09, 03:41:04,VALID,1011.69,VALID,0,VALID,91.3184,VALID,0,VALID,24.8438,VALID,112,VALID,0.969141,
2014-09-09, 03:42:04,VALID,1011.65,VALID,0,VALID,91.3031,VALID,0,VALID,24.8438,VALID,112,VALID,0.642969,
2014-09-09, 03:43:04,VALID,1011.66,VALID,0,VALID,91.4252,VALID,0,VALID,24.8457,VALID,112,VALID,0.576172,
2014-09-09, 03:44:04,VALID,1011.62,VALID,0,VALID,91.204,VALID,0,VALID,24.8244,VALID,129,VALID,1.06562,
2014-09-09, 03:45:04,VALID,1011.66,VALID,0,VALID,91.3642,VALID,0,VALID,24.8244,VALID,129,VALID,0.496094,